Location: Newark
(42.8481°N, 0.4872°E)
Time: 08:54:42
(UTC+00:00)

Vanguard 3 - Pass Details

Date: 05 November 2020
Orbit: 508 x 3262 km, 33.3° (Epoch: 27 November)

Event Time Altitude Azimuth Distance (km) Brightness Sun altitude
Rises 05:46:23 0° 261° (W) 5,864 - -9.8°
Exits shadow 05:48:20 - 259° (W) 5,452 10.8 -9.5°
Reaches altitude 10° 05:49:48 10° 258° (WSW) 5,152 10.7 -9.2°
Maximum altitude 06:06:01 62° 183° (S) 3,418 10.4 -6.4°
Drops below altitude 10° 06:25:24 10° 109° (ESE) 6,012 13.7 -3.0°
Sets 06:29:46 0° 106° (ESE) 6,848 15.2 -2.2°
